#timestamp,LO_Frequency,Hit,StdDev 
1532430015.9,286046996.7,N
1532430035.7,286046999.6,N
1532430055.6,286046999.4,N
1532430075.4,286046998.5,N
1532430095.2,286046998.2,N
1532430115.1,286047000.0,N
1532430116.0,286047000.0,N
1532430135.8,286046998.7,N
1532430155.6,286046996.6,N
1532430175.5,286046994.9,N
1532430195.3,286046999.2,N
1532430215.2,286046997.6,N
1532430235.9,286046995.0,Y
1532430255.7,286046995.3,P
1532430275.6,286046993.7,P
1532430295.4,286046997.9,N
1532430315.2,286046997.4,N
1532430335.1,286046995.0,N
1532430336.0,286046995.0,N
1532430355.8,286046994.2,Y
1532430375.7,286046996.6,P
1532430395.5,286046996.5,P
1532430415.3,286046996.6,P
1532430435.2,286046997.1,Y
1532430455.0,286046998.5,P
1532430455.9,286046998.5,N
1532430475.8,286047001.2,N
1532430495.6,286047000.9,N
1532430515.4,286047000.3,N
1532430535.3,286046999.9,N
1532430555.1,286047002.6,N
1532430575.8,286046998.6,N
1532430595.7,286047000.3,N
1532430615.5,286046999.1,N
1532430635.4,286046998.5,N
1532430655.2,286046996.9,N
1532430675.0,286046998.4,N
1532430675.9,286046998.4,N
1532430695.8,286046997.8,N
1532430715.6,286046997.2,N
1532430735.4,286046997.2,N
1532430755.3,286046996.9,N
1532430775.1,286046997.8,N
1532430795.9,286046997.1,N
1532430815.7,286046994.9,Y
1532430835.5,286046998.0,P
1532430855.4,286046997.7,P
1532430875.2,286046996.8,P
1532430895.1,286046996.8,Y
1532430896.0,286046996.8,P
1532430915.8,286046998.3,P
1532430935.6,286046997.5,P
1532430955.5,286046998.0,Y
1532430975.3,286047001.0,P
1532430995.1,286047000.2,N
1532431015.9,286046999.7,N
1532431035.7,286047000.0,N
1532431055.6,286047000.8,N
1532431075.4,286047000.6,N
1532431095.2,286047000.0,N
1532431115.1,286047000.5,N
1532431116.0,286047000.5,N
1532431135.8,286047000.1,N
1532431155.6,286047000.5,N
1532431175.5,286047002.8,Y
1532431195.3,286046998.5,P
1532431215.2,286047000.8,N
1532431235.9,286047000.3,N
1532431255.7,286047000.1,N
1532431275.6,286047002.8,Y
1532431295.4,286047000.3,P
1532431315.3,286046998.6,P
1532431335.1,286046998.4,N
1532431336.0,286046998.4,N
1532431355.8,286046998.8,N
1532431375.7,286046997.0,Y
1532431395.5,286046996.9,P
1532431415.3,286046997.1,N
1532431435.2,286046997.4,N
1532431455.0,286046999.2,N
1532431455.9,286046999.2,N
1532431475.8,286047001.2,N
1532431495.6,286046998.9,N
1532431515.4,286046998.1,N
1532431535.3,286046998.4,N
1532431555.1,286046999.1,N
1532431575.8,286046997.3,N
1532431595.7,286046996.7,N
1532431615.5,286046996.7,N
1532431635.4,286046999.3,N
1532431655.2,286047000.8,N
1532431675.0,286047000.1,N
1532431675.9,286047000.1,N
1532431695.8,286047002.6,N
1532431715.6,286047001.9,N
1532431735.4,286047003.8,N
1532431755.3,286047004.0,N
1532431775.1,286047002.3,N
1532431795.9,286047001.8,N
1532431815.7,286047001.9,N
1532431835.5,286047003.9,N
1532431855.4,286047004.0,N
1532431875.2,286047001.4,N
1532431895.0,286047001.4,N
1532431896.0,286047001.4,N
1532431915.8,286047001.3,N
1532431935.6,286046999.9,N
1532431955.5,286047002.8,N
1532431975.3,286047002.6,N
1532431995.1,286047004.0,N
1532432015.9,286047001.7,N
1532432035.7,286046999.7,N
1532432055.6,286046999.7,N
1532432075.4,286046999.8,N
1532432095.2,286046998.6,N
1532432115.1,286047000.7,N
1532432116.0,286047000.7,N
1532432135.8,286046998.2,N
1532432155.7,286046999.9,N
1532432175.5,286047000.2,N
1532432195.3,286047001.3,N
1532432215.2,286047001.7,N
1532432235.9,286047004.0,N
1532432255.7,286047003.2,N
1532432275.6,286047006.9,Y
1532432295.4,286047006.3,P
1532432315.3,286047007.0,N
1532432335.1,286047006.2,N
1532432336.0,286047006.2,N
1532432355.8,286047005.9,Y
1532432375.7,286046999.2,P
1532432395.5,286046998.9,N
1532432415.3,286046998.1,N
1532432435.2,286046998.0,N
1532432455.0,286046998.8,N
1532432455.9,286046998.8,N
1532432475.8,286046998.7,N
1532432495.6,286046998.3,N
1532432515.4,286046996.5,N
1532432535.3,286046997.7,N
1532432555.1,286046997.9,N
1532432575.9,286046997.7,N
1532432595.7,286046997.5,N
1532432615.5,286046997.7,N
1532432635.4,286046996.7,N
1532432655.2,286046997.8,N
1532432675.0,286046995.4,N
1532432675.9,286046995.4,N
1532432695.8,286046993.9,Y
1532432715.6,286046997.7,P
1532432735.5,286046999.5,N
1532432755.3,286046998.7,N
1532432775.1,286046998.9,N
1532432795.9,286046996.6,Y
1532432815.7,286046997.0,P
1532432835.5,286046999.4,N
1532432855.4,286046997.7,N
1532432875.2,286046996.9,Y
1532432895.1,286047001.1,P
1532432896.0,286047001.1,N
1532432915.8,286047001.1,N
1532432935.6,286046999.7,N
1532432955.5,286046999.7,N
1532432975.3,286047002.8,N
1532432995.2,286047000.0,N
1532433015.9,286046998.5,N
1532433035.7,286047000.8,N
1532433055.6,286046999.2,N
1532433075.4,286046998.4,N
1532433095.2,286046999.3,N
1532433115.1,286046998.7,N
1532433116.0,286046998.7,N
1532433135.8,286047000.1,N
1532433155.7,286047001.1,N
1532433175.5,286046999.2,N
1532433195.3,286047000.1,N
1532433215.2,286047001.7,N
1532433235.0,286047002.6,N
1532433235.9,286047002.6,N
1532433255.8,286046999.8,N
1532433275.6,286047000.4,N
1532433295.4,286047002.2,N
1532433315.3,286047003.7,N
1532433335.1,286047002.4,N
1532433355.8,286047000.1,N
1532433375.7,286047001.0,N
1532433395.5,286047001.9,N
1532433415.4,286046999.8,N
1532433435.2,286046999.3,N
1532433455.0,286046998.6,N
1532433455.9,286046998.6,N
1532433475.8,286047002.8,N
1532433495.6,286047002.8,N
1532433515.4,286046999.8,N
1532433535.3,286047000.9,N
1532433555.1,286047000.9,N
1532433575.9,286046999.7,N
1532433595.7,286047001.7,N
